Content
SEND FEEDBACK

Daily
Averages
Monthly
Summary
Switzerland

GENEVA, SWITZERLAND


Home > Europe > Switzerland
Elevation: 415 meters     Latitude: 46 15N     Longitude: 006 08E

WEATHER
 
SELECT A DAY
Number of Records: 306,285;   Date Range: 7/1/96 - 9/18/14
 
SHARE

PRINT THIS DATA

[ ← Previous Day ]
WEATHER ALMANAC - 5 MARCH, 2013
[ Next Day → ]
[ °F ]   °C
Weather ElementAverageHighLow
Temperature1.9 °C7 °C (5:20 pm)-3.3 °C (3:00 am)
Dewpoint-1.1 °C1 °C (3:20 pm)-4.4 °C (3:00 am)
Humidity79.2 %100 % (3:20 am)51 % (5:00 pm)
Barometer1011.2 hPa1017.3 hPa (2:00 am)1006.1 hPa (11:20 pm)
Wind Speed2.3 km/h5.6 km/h (3:00 am)
Weather ElementAverage
Visibility4.8 km
Wind DirectionE (85.3 °)

Weather ElementTotal
Precipitation---
Heating Degree Days16.5 (Base 18.3)
Averaged from 66 records on 5 March, 2013
WEATHER CONDITIONS BREAKOUT
WIND DIRECTION BREAKOUT
WEATHER BY HOUR - 5 MARCH, 2013
[ °F ]   °C
Local TimeTemperatureDewpointHumidityBarometerVisibilityWind DirectionWind SpeedGust SpeedPrecipitationEventsConditions
12:20 AM-1 °C-2 °C93 %1014.2 hPa6 kmCalm
12:50 AM-2 °C-3 °C93 %1014.2 hPa6 kmCalm
1:00 AM-1.7 °C-3.3 °C85 %1016.9 hPa6.4 kmNorth (10°)1.9 km/hMist
1:20 AM-2 °C-3 °C93 %1014.2 hPa6 kmCalm
1:50 AM-2 °C-3 °C93 %1014.2 hPa5 kmWNW (290°)1.9 km/hMist
2:00 AM-2.2 °C-3.9 °C83 %1017.3 hPaWNW (300°)1.9 km/h
2:50 AM-2 °C-3 °C93 %1014.2 hPa5 kmCalmMist
3:00 AM-3.3 °C-4.4 °C87 %1016.9 hPaNW (310°)5.6 km/h
3:20 AM-3 °C-3 °C100 %1013.2 hPa4 kmVariable1.9 km/hMist
3:50 AM-3 °C-4 °C93 %1013.2 hPa4 kmCalmMist
4:20 AM-3 °C-3 °C100 %1013.2 hPa4 kmSW (220°)3.7 km/hMist
4:50 AM-2 °C-3 °C93 %1013.2 hPa4 kmVariable1.9 km/hMist
5:00 AM-2.8 °C-3.9 °C88 %1015.9 hPaWest (270°)1.9 km/h
5:20 AM-3 °C-4 °C93 %1012.2 hPa4 kmVariable1.9 km/hMist
5:50 AM-3 °C-4 °C93 %1012.2 hPa4 kmVariable3.7 km/hMist
6:00 AM-2.8 °C-4.4 °C85 %1015.6 hPaWNW (300°)3.7 km/h
6:20 AM-3 °C-4 °C93 %1012.2 hPa4 kmVariable1.9 km/hMist
6:50 AM-3 °C-3 °C100 %1012.2 hPa4 kmVariable1.9 km/hMist
7:00 AM-1.7 °C-3.3 °C86 %1015.2 hPa3.2 kmSouth (170°)1.9 km/hMist
7:20 AM-2 °C-3 °C93 %1012.2 hPa4 kmVariable1.9 km/hMostly Cloudy
7:50 AM-1 °C-2 °C93 %1012.2 hPa4 kmVariable1.9 km/hMostly Cloudy
8:00 AM-1.1 °C-2.8 °C85 %1015.2 hPaNW (320°)1.9 km/h
8:20 AM-1 °C-2 °C93 %1012.2 hPa4 kmCalmMostly Cloudy
8:50 AM0 °C-1 °C93 %1013.2 hPa4 kmVariable1.9 km/hMostly Cloudy
9:00 AM0.6 °C-1.7 °C77 %1014.9 hPaNNW (340°)1.9 km/h
9:20 AM1 °C-1 °C87 %1012.2 hPa4 kmVariable1.9 km/hMostly Cloudy
9:50 AM2 °C-1 °C81 %1013.2 hPa4 kmVariable3.7 km/hMostly Cloudy
10:20 AM2 °C-1 °C81 %1013.2 hPa4 kmVariable1.9 km/hMostly Cloudy
10:50 AM3 °C0 °C81 %1012.2 hPa4 kmVariable3.7 km/hMostly Cloudy
11:00 AM3.3 °C-0.6 °C68 %1013.9 hPaNNW (340°)1.9 km/h
11:20 AM4 °C0 °C75 %1012.2 hPa4 kmCalmMostly Cloudy
11:50 AM3 °C0 °C81 %1012.2 hPa4 kmVariable3.7 km/hOvercast
12:00 PM3.3 °C-1.1 °C65 %1013.5 hPaNW (310°)1.9 km/h
12:20 PM4 °C0 °C75 %1012.2 hPa4 kmVariable1.9 km/hOvercast
12:50 PM5 °C0 °C70 %1011.2 hPa4 kmVariable3.7 km/hHaze
1:00 PM4.4 °C0 °C63 %1012.9 hPa3.2 kmNorth (10°)3.7 km/hHaze
1:20 PM5 °C0 °C70 %1011.2 hPa4 kmVariable1.9 km/hHaze
1:50 PM6 °C0 °C66 %1010.2 hPa4 kmVariable1.9 km/hHaze
2:00 PM5.6 °C-0.6 °C54 %1011.5 hPaENE (60°)3.7 km/h
2:20 PM6 °C0 °C66 %1010.2 hPa4.5 kmVariable3.7 km/hHaze
2:50 PM6 °C0 °C66 %1010.2 hPa4.5 kmVariable1.9 km/hHaze
3:00 PM6.1 °C0.6 °C56 %1010.8 hPaWSW (250°)5.6 km/h
3:20 PM6 °C1 °C70 %1009.1 hPa4 kmVariable3.7 km/hHaze
3:50 PM6 °C1 °C70 %1009.1 hPa4 kmVariable1.9 km/hHaze
4:20 PM6 °C1 °C70 %1008.1 hPa4 kmVariable1.9 km/hHaze
4:50 PM6 °C1 °C70 %1008.1 hPa5 kmVariable1.9 km/hHaze
5:00 PM6.7 °C0 °C51 %1009.1 hPaWest (270°)5.6 km/h
5:20 PM7 °C1 °C66 %1008.1 hPa5 kmVariable3.7 km/hHaze
5:50 PM6 °C0 °C66 %1008.1 hPa5 kmWest (260°)5.6 km/hHaze
6:00 PM6.1 °C0 °C53 %1008.8 hPaSSW (210°)1.9 km/h
6:20 PM6 °C1 °C70 %1007.1 hPa5 kmVariable1.9 km/hHaze
6:50 PM6 °C1 °C70 %1007.1 hPa5 kmVariable1.9 km/hHaze
7:00 PM6.1 °C0 °C54 %1008.8 hPa4.8 kmNW (310°)3.7 km/hHaze
7:20 PM6 °C1 °C70 %1007.1 hPa5 kmVariable1.9 km/hHaze
7:50 PM6 °C1 °C70 %1007.1 hPa4 kmWSW (240°)5.6 km/hHaze
8:00 PM4.4 °C0.6 °C68 %1008.8 hPaWNW (290°)1.9 km/h
8:20 PM5 °C1 °C76 %1007.1 hPa4 kmCalmScattered Clouds
8:50 PM3 °C0 °C81 %1007.1 hPa8 kmCalmPartly Cloudy
9:00 PM2.8 °C-0.6 °C73 %1008.8 hPaWNW (300°)1.9 km/h
9:20 PM3 °C0 °C81 %1007.1 hPa9 kmVariable1.9 km/h
9:50 PM2 °C0 °C87 %1007.1 hPa9 kmVariable1.9 km/h
10:20 PM2 °C0 °C87 %1007.1 hPa8 kmVariable1.9 km/hPartly Cloudy
10:50 PM2 °C0 °C87 %1007.1 hPa8 kmVariable3.7 km/hPartly Cloudy
11:00 PM1.7 °C-0.6 °C80 %1008.8 hPaWSW (250°)1.9 km/h
11:20 PM1 °C-1 °C87 %1006.1 hPa8 kmCalmPartly Cloudy
11:50 PM1 °C-1 °C87 %1006.1 hPa6.9 kmCalmPartly Cloudy
Hourly data recorded from LSGG, located 0 kilometers away from Geneva, Switzerland







STORIES FROM OUR PARTNERS